Flag for Iran Weather past 2 weeks in Mashhad, Iran

Now
88 °F

Scattered clouds.


Feels Like: 84 °F
Forecast: 63 / 92 °F
Wind: 7 mph from Northeast

Location: Mashhad Airport

Current Time: May 29, 2015 at 11:20:56 AM

Latest Report: May 29, 2015 at 11:00 AM


Visibility: N/A

Pressure: 29.89 "Hg

Humidity: 15%

Dew point: 34 °F

Location of MashhadLocation

Historic Weather in Mashhad — Graph

°F

Mashhad temperature yesterday

Maximum temperature yesterday: 93 °F (at 4:00 PM)
Minimum temperature yesterday: 64 °F (at 5:00 AM)
Average temperature yesterday: 80 °F

Past Weeks' High & Low Weather Summary

 TemperatureHumidityPressure
High95 °F (May 15, 4:00 PM)88% (May 22, 2:30 AM)30.18 "Hg (May 22, 2:30 AM)
Low54 °F (May 25, 5:30 AM)5% (May 26, 1:55 PM)29.80 "Hg (May 15, 4:00 PM)
Average74 °F31%30.02 "Hg
* Reported May 14 9:30 AM — May 29 10:00 AM, Mashhad, Weather by CustomWeather, © 2015

Note: Actual official high and low records may vary slightly from our data, if they occured in-between our weather recording intervals... More about our weather records

Advertising

Mashhad weather history for previous 24 hours

 ConditionsComfort  
Time TempWeatherWind HumidityBarometerVisibility
10:00 AM
Fri, May 29
84 °FPassing clouds.No wind16%29.89 "HgN/A
9:30 AM82 °FPassing clouds.5 mph19%29.89 "HgN/A
9:00 AM79 °FPassing clouds.7 mph23%29.89 "HgN/A
8:30 AM77 °FScattered clouds.5 mph24%29.89 "HgN/A
8:00 AM77 °FScattered clouds.5 mph24%29.89 "HgN/A
7:30 AM75 °FScattered clouds.7 mph29%29.86 "HgN/A
7:00 AM73 °FSunny.5 mph33%29.86 "Hg10 mi
6:30 AM68 °FClear.5 mph38%29.86 "Hg10 mi
6:00 AM66 °FClear.5 mph37%29.86 "Hg10 mi
5:30 AM66 °FClear.5 mph37%29.86 "Hg10 mi
5:00 AM66 °FClear.7 mph40%29.83 "Hg10 mi
4:30 AM66 °FClear.5 mph40%29.83 "Hg10 mi
4:00 AM66 °FClear.5 mph37%29.83 "Hg10 mi
3:30 AM68 °FClear.No wind33%29.83 "Hg10 mi
2:30 AM72 °FClear.7 mph27%29.86 "Hg10 mi
2:00 AM72 °FClear.5 mph27%29.86 "Hg10 mi
1:30 AM73 °FClear.5 mph25%29.86 "Hg10 mi
12:55 AM72 °FClear.7 mph29%29.89 "Hg10 mi
12:25 AM75 °FClear.7 mph25%29.89 "Hg10 mi
11:55 PM
Thu, May 28
77 °FPassing clouds.5 mph26%29.89 "HgN/A
11:25 PM77 °FPassing clouds.5 mph24%29.89 "HgN/A
11:00 PM77 °FPassing clouds.7 mph24%29.89 "HgN/A
10:30 PM81 °FPassing clouds.12 mph20%29.89 "HgN/A
9:55 PM81 °FPassing clouds.12 mph20%29.92 "HgN/A
9:20 PM81 °FPassing clouds.5 mph16%29.89 "HgN/A
8:55 PM81 °FPartly sunny.5 mph16%29.89 "HgN/A
8:00 PM81 °FScattered clouds.12 mph16%29.83 "HgN/A
7:30 PM82 °FScattered clouds.12 mph15%29.83 "HgN/A
6:55 PM84 °FPartly sunny.12 mph13%29.83 "HgN/A
6:30 PM88 °FScattered clouds.12 mph11%29.80 "HgN/A
6:00 PM88 °FScattered clouds.14 mph10%29.80 "HgN/A
5:30 PM90 °FScattered clouds.7 mph9%29.80 "HgN/A
4:55 PM91 °FScattered clouds.12 mph9%29.80 "HgN/A
4:30 PM93 °FScattered clouds.7 mph8%29.80 "HgN/A
4:00 PM93 °FPassing clouds.9 mph8%29.83 "HgN/A
3:30 PM90 °FScattered clouds.9 mph9%29.83 "HgN/A
2:55 PM91 °FPassing clouds.12 mph9%29.83 "HgN/A
2:20 PM91 °FScattered clouds.5 mph8%29.83 "HgN/A
2:00 PM91 °FScattered clouds.9 mph9%29.86 "HgN/A
1:30 PM91 °FScattered clouds.7 mph10%29.86 "HgN/A
1:00 PM90 °FScattered clouds.9 mph10%29.86 "HgN/A
12:30 PM90 °FScattered clouds.9 mph11%29.86 "HgN/A
11:50 AM88 °FScattered clouds.9 mph12%29.89 "HgN/A
11:30 AM86 °FScattered clouds.7 mph13%29.89 "HgN/A
11:00 AM86 °FPassing clouds.7 mph13%29.89 "HgN/A
Weather by CustomWeather, © 2015

See weather overviewHow to use our weather pages